Location: Capelle
(50.3413°N, 1.9974°E)
Time: 23:29:38
(UTC+00:00)

ARIANE 5 R/B - Pass Details

Date: 12 January 2026
Orbit: 746 x 793 km, 98.8° (Epoch: 9 February)

Event Time Altitude Azimuth Distance (km) Brightness Sun altitude
Rises 18:07:49 0° 186° (S) 3,277 6.0 -17.6°
Reaches altitude 10° 18:10:16 10° 193° (SSW) 2,354 5.3 -18.0°
Maximum altitude 18:15:08 39° 262° (W) 1,173 4.0 -18.7°
Drops below altitude 10° 18:20:02 10° 332° (NNW) 2,368 5.2 -19.5°
Sets 18:22:31 0° 340° (NNW) 3,298 5.9 -19.9°
